DW8590 Weather Reports


time (UTC)temp
F
wind
direction
speed
knots
gust
knots
rain 1hr
in
rain 24hr
in
rain mn
in
humidity
%
barometer
mb
20260506061559 53 146 0.9 4.3 0.00 0.25 0.19 68 1014.2
20260506044529 54 87 0.0 2.6 0.00 0.30 0.19 69 1013.1
20260506043028 54 149 0.0 1.7 0.00 0.30 0.19 70 1013.1
20260506041525 55 131 0.0 4.3 0.00 0.30 0.19 68 1012.9
20260506040024 55 134 0.0 6.1 0.00 0.30 0.19 68 1012.8
20260506034523 55 137 0.9 5.2 0.00 0.31 0.19 67 1012.7
20260506033119 56 129 0.0 2.6 0.00 0.31 0.19 65 1012.3
20260506031517 56 114 0.0 0.0 0.00 0.31 0.19 65 1011.9
20260506030015 57 115 0.0 0.0 0.00 0.31 0.19 62 1011.8
20260506024514 59 184 0.0 0.9 0.00 0.31 0.19 61 1011.6
20260506023012 61 190 0.0 0.9 0.00 0.31 0.19 57 1011.4
20260506021511 63 172 0.0 3.5 0.00 0.31 0.19 52 1011.2
20260506020013 66 270 0.9 3.5 0.00 0.34 0.19 46 1011.1
20260506014508 66 182 0.9 3.5 0.00 0.34 0.19 47 1011.0
20260506013006 66 183 0.9 4.3 0.00 0.34 0.19 46 1011.1
20260506011502 65 172 0.9 3.5 0.00 0.34 0.19 46 1011.1
20260506010104 65 235 1.7 6.1 0.00 0.34 0.19 47 1011.1
20260506004556 66 249 1.7 0.0 0.00 0.00 0.19 46 1011.1
20260506003054 66 149 0.9 4.3 0.00 0.37 0.19 47 1011.1
20260506001602 65 299 1.7 6.1 0.00 0.37 0.19 47 1011.2
20260506000109 66 169 1.7 4.3 0.00 0.37 0.19 49 1011.2
20260505234546 66 183 1.7 6.1 0.00 0.37 0.19 48 1011.2
20260505233048 65 263 0.9 5.2 0.00 0.37 0.19 50 1011.3
20260505231545 63 283 2.6 5.2 0.00 0.37 0.19 51 1011.6
20260505230043 62 205 0.9 4.3 0.00 0.37 0.19 57 1011.7
20260505224541 61 261 2.6 6.1 0.00 0.37 0.19 57 1011.9
20260505223036 61 326 0.9 7.0 0.00 0.37 0.19 59 1012.0
20260505221525 61 230 0.9 4.3 0.00 0.37 0.19 58 1011.9
20260505220021 60 126 0.9 4.3 0.00 0.37 0.19 59 1012.1
20260505214519 60 252 0.9 7.0 0.00 0.37 0.19 63 1012.2
20260505213016 59 121 0.9 5.2 0.00 0.37 0.19 66 1012.4
20260505211516 58 158 1.7 5.2 0.00 0.37 0.19 68 1012.6
20260505210008 57 262 0.9 7.0 0.00 0.37 0.19 68 1012.7
20260505204506 57 203 0.9 4.3 0.00 0.37 0.19 65 1012.8
20260505203059 55 132 0.0 3.5 0.00 0.37 0.19 72 1012.9
20260505201554 55 101 1.7 5.2 0.00 0.37 0.19 72 1012.9
20260505200052 54 271 1.7 5.2 0.00 0.37 0.19 72 1013.2
20260505194543 53 100 1.7 4.3 0.00 0.42 0.19 73 1013.3
20260505193040 53 146 1.7 4.3 0.00 0.42 0.19 73 1013.1
20260505191538 52 226 1.7 4.3 0.00 0.42 0.19 75 1013.2
20260505190036 53 198 0.9 4.3 0.00 0.42 0.19 76 1013.1
20260505184628 50 164 0.0 2.6 0.00 0.42 0.19 77 1013.0
20260505183025 49 161 0.0 2.6 0.00 0.42 0.19 78 1013.0
20260505181522 48 147 0.0 3.5 0.00 0.42 0.19 80 1013.0
20260505180015 47 148 0.0 2.6 0.00 0.42 0.19 81 1012.8
20260505174515 47 165 0.9 2.6 0.00 0.42 0.19 81 1012.6
20260505173006 47 189 0.0 1.7 0.00 0.42 0.19 83 1012.4
20260505171605 46 179 0.9 2.6 0.00 0.42 0.19 85 1012.2
20260505170059 46 133 0.0 1.7 0.00 0.42 0.19 86 1012.1
20260505164557 45 163 0.0 1.7 0.00 0.42 0.19 87 1012.1
20260505163051 44 120 0.0 2.6 0.00 0.42 0.19 89 1012.1
20260505161550 44 157 0.0 0.9 0.00 0.42 0.19 90 1011.8
20260505153044 43 207 0.0 3.5 0.00 0.42 0.19 92 1011.5
20260505151536 43 224 0.0 2.6 0.00 0.42 0.19 92 1011.5
20260505124508 43 259 0.0 0.9 0.00 0.42 0.19 95 1009.8
20260505123005 43 258 0.0 0.9 0.01 0.42 0.19 95 1009.7
20260505121504 43 145 0.0 0.0 0.01 0.42 0.19 95 1009.6
20260505120002 43 145 0.0 0.0 0.01 0.42 0.19 95 1009.5
20260505114600 43 169 0.0 1.7 0.01 0.42 0.19 95 1009.4
20260505113057 43 164 0.0 0.9 0.01 0.41 0.18 94 1009.5
20260505111556 43 165 0.0 0.9 0.01 0.41 0.18 95 1009.4
20260505110110 43 156 0.0 0.0 0.01 0.41 0.18 94 1009.4
20260505101546 43 266 0.0 0.9 0.10 0.40 0.17 94 1009.7
20260505100042 44 233 0.0 0.9 0.11 0.40 0.17 94 1009.7
20260505094539 43 228 0.0 0.0 0.10 0.39 0.16 94 1009.9
20260505093036 43 300 0.0 0.0 0.08 0.35 0.12 94 1010.2
20260505091533 44 287 0.0 0.9 0.03 0.30 0.07 93 1010.0
20260505090035 44 327 0.0 0.9 0.03 0.28 0.06 94 1010.1
20260505084529 44 343 0.0 0.9 0.02 0.28 0.05 93 1010.4
20260505083022 44 280 0.0 0.0 0.03 0.27 0.04 93 1010.4
20260505081523 44 280 0.0 0.0 0.03 0.27 0.04 93 1010.2
20260505080021 44 280 0.0 0.0 0.03 0.26 0.03 92 1010.2
20260505074514 44 280 0.0 0.0 0.04 0.25 0.02 92 1010.4
20260505073011 44 259 0.0 1.7 0.05 0.24 0.01 92 1010.7
20260505071508 44 98 0.0 0.9 0.07 0.24 0.01 91 1010.5